Simultaneous Nadir Overpasses (SNOs) Predictions

Prediction of SNOs between METOP-A and NOAA-19 Satellite Orbit:

Table of predicted SNOs for the next 14.0 days since TLE Epoch: 3/11/2016
Index Date (METOP-A) Time (METOP-A) Lat,Lon (METOP-A) SZA (METOP-A ) Date (NOAA-19) Time (NOAA-19) Lat,Lon (NOAA-19) SZA (NOAA-19 ) Distance(km) Time Diff (sec)
1 03/16/2016 19:29:36 -76.00, 67.56 102.74 03/16/2016 19:28:23 -76.02, 66.54 102.70 27.45 73
2 03/16/2016 20:20:19 75.84,-125.64 77.10 03/16/2016 20:19:24 75.83,-125.55 77.09 2.73 55
3 03/16/2016 21:11:01 -75.85, 41.70 102.91 03/16/2016 21:10:21 -75.84, 41.69 102.92 1.02 40
4 03/16/2016 22:01:41 75.83,-151.04 77.06 03/16/2016 22:01:26 75.82,-151.03 77.06 0.22 15
5 03/16/2016 22:52:23 -75.83, 16.30 102.96 03/16/2016 22:52:23 -75.83, 16.22 102.96 2.39 0
6
